Home   Weather   Georgsmarienhütte   Past weeks

Flag for Germany Past Weather in Georgsmarienhütte, Lower Saxony, Germany — Yesterday and Last 2 Weeks

Now
45 °F

Passing clouds.


Feels Like: 40 °F
Forecast: 40 / 45 °F
Wind: 9 mph from Southwest

Location: Muenster / Osnabrueck

Current Time: Dec 8, 2016 at 9:06:31 am

Latest Report: Dec 8, 2016 at 8:20 am


Visibility: N/A

Pressure: 30.36 "Hg

Humidity: 66%

Dew Point: 34 °F

Location of GeorgsmarienhütteLocation

Past Weather in Georgsmarienhütte — Graph

°F

Georgsmarienhütte Temperature Yesterday

Maximum temperature yesterday: 46 °F (at 7:20 pm)
Minimum temperature yesterday: 28 °F (at 12:20 am)
Average temperature yesterday: 37 °F

High & Low Weather Summary for the Past Weeks

 TemperatureHumidityPressure
High54 °F (Nov 23, 12:50 pm)100% (Nov 23, 8:50 am)30.60 "Hg (Nov 23, 8:50 am)
Low18 °F (Nov 29, 7:20 am)42% (Dec 5, 2:50 pm)30.01 "Hg (Nov 23, 7:20 am)
Average34 °F87%30.30 "Hg
* Reported Nov 23 7:20 am — Dec 8 7:50 am, Georgsmarienhütte, Weather by CustomWeather, © 2016

Note: Actual official high and low records may vary slightly from our data, if they occured in-between our weather recording intervals... More about our weather records

Advertising

Georgsmarienhütte Weather History for the Previous 24 Hours

Scroll right to see more
 ConditionsComfort  
Time TempWeatherWind HumidityBarometerVisibility
7:50 am
Thu, Dec 8
45 °FClear.9 mph66%30.36 "Hg10 mi
7:20 am45 °FClear.9 mph66%30.36 "Hg10 mi
6:50 am45 °FClear.8 mph66%30.36 "Hg10 mi
6:20 am45 °FClear.7 mph66%30.36 "Hg10 mi
5:50 am46 °FPassing clouds.8 mph62%30.36 "HgN/A
5:20 am46 °FPassing clouds.9 mph62%30.36 "HgN/A
4:50 am46 °FClear.9 mph62%30.36 "Hg10 mi
4:20 am46 °FClear.10 mph62%30.36 "Hg10 mi
3:20 am46 °FClear.10 mph62%30.36 "Hg10 mi
2:20 am46 °FClear.9 mph66%30.36 "Hg10 mi
1:50 am46 °FPassing clouds.10 mph66%30.36 "HgN/A
1:20 am46 °FCool.9 mph66%30.36 "HgN/A
12:50 am46 °FPassing clouds.12 mph66%30.36 "HgN/A
12:20 am46 °FPassing clouds.9 mph66%30.36 "HgN/A
11:50 pm
Wed, Dec 7
46 °FPassing clouds.10 mph66%30.39 "HgN/A
11:20 pm46 °FPassing clouds.9 mph66%30.39 "HgN/A
10:50 pm46 °FClear.12 mph66%30.39 "Hg10 mi
10:20 pm46 °FPassing clouds.8 mph66%30.39 "HgN/A
9:50 pm46 °FPassing clouds.8 mph66%30.39 "HgN/A
9:20 pm46 °FPassing clouds.6 mph66%30.39 "HgN/A
8:50 pm46 °FPassing clouds.7 mph66%30.39 "HgN/A
8:20 pm46 °FPassing clouds.6 mph66%30.39 "HgN/A
7:50 pm46 °FClear.7 mph66%30.39 "Hg10 mi
7:20 pm46 °FPassing clouds.7 mph66%30.39 "HgN/A
6:50 pm45 °FPassing clouds.6 mph71%30.39 "HgN/A
6:20 pm45 °FPassing clouds.6 mph76%30.39 "HgN/A
5:50 pm45 °FClear.6 mph71%30.39 "Hg10 mi
5:20 pm45 °FClear.6 mph71%30.39 "Hg10 mi
4:50 pm45 °FPassing clouds.6 mph71%30.36 "HgN/A
4:20 pm45 °FClear.6 mph71%30.36 "Hg10 mi
3:20 pm45 °FSunny.6 mph71%30.39 "Hg10 mi
2:50 pm45 °FSunny.6 mph71%30.39 "Hg10 mi
2:20 pm45 °FSunny.8 mph71%30.39 "Hg10 mi
1:50 pm43 °FPassing clouds.3 mph76%30.39 "HgN/A
1:20 pm41 °FSunny.3 mph81%30.39 "Hg10 mi
12:50 pm39 °FPassing clouds.7 mph81%30.39 "HgN/A
12:20 pm39 °FSunny.7 mph81%30.39 "Hg10 mi
11:50 am37 °FSunny.6 mph81%30.42 "Hg10 mi
11:20 am36 °FLight rain. Broken clouds.7 mph87%30.42 "HgN/A
10:50 am34 °FPassing clouds.6 mph87%30.42 "HgN/A
10:20 am34 °FPassing clouds.5 mph87%30.42 "HgN/A
9:50 am32 °FBroken clouds.5 mph93%30.42 "HgN/A
9:20 am32 °FSunny.7 mph87%30.42 "Hg10 mi
Weather by CustomWeather, © 2016

See weather overviewHow to use our weather pages